{"data":{"norad_id":28935,"epoch":"2026-09-19T21:34:47.303904Z","epoch_age_seconds":66268,"freshness":"FRESH","line1":"1 28935U 06003A   26262.89915861 -.00000060  00000+0  00000+0 0  9996","line2":"2 28935   0.0397 342.3769 0002667 145.4432  84.5084  1.00271241 75410","mean_motion":1.00271241,"eccentricity":0.0002667,"inclination_deg":0.0397,"raan_deg":342.3769,"arg_perigee_deg":145.4432,"mean_anomaly_deg":84.5084,"bstar":0,"rev_number":7541,"period_min":1436.1046952635,"perigee_km":35775.502090141,"apogee_km":35797.992839515,"semimajor_km":42164.884464828,"source":"CELESTRAK","updated_at":"2026-09-20T09:00:35.126203Z"}}